Prendre note que le site web est en construction et que certains liens ne sont pas encore fonctionnels ou mise à jour.

-13 octobre 2018 = mise à jour dans la section menu "Acceuil"



Sites météorologiques /Documentations/ Programmes:

Météo Québec
Site web version 2
Modèle de Meteotemplate

CoCoRaHS Canada
Station CAN-QC-39

Météo Alerte Québec

Météo Centre

État des routes
Québec 511

Québec en Alerte

Orage Québec

Québec Vortex
chasseurs de tempêtes

Hydro Météo (info-rivière)

Avalanche Québec

Agrométéo Québec

Bulletin des agriculteurs secteur Québec

Réseau Météo-Québec

Réseau Météo des Provinces Atlantiques

Réseau Météo Ontario

Séismes Canada
l'Est du Canada

Fire Smoke Canada

Canwarn Québec

Climat Québec

Environnement Canada

MétéoMédia

Leuven Template

Réseau de transport de la Capitale (RTC)


Équipements et logiciels de la station:

Davis Pro 2

Weather Display

Asus/Intel

Rapidenet Canada

Select another period ( hide this area )

Les unités Période Custom range Directly to
Métriques Impériales Les deux
Journalier - Par semaine Mensuel Annuel
use both date-selectors for a custom range
previous Jour
With this date

WeatherUnderground graphs for this period ( click here )


Journalier - Résumé pour Vendredi 19 octobre 2018
Heure Temp. ( °C ) Dew pt. ( °C ) Vent ( km/h ) de Rafale ( km/h ) Pression ( hPa ) Humid.( % ) Rainrate ( cm ) Solaire ( W/m2 )
Élevé7,3 3,5 3,7 NE ( 24/44 ) 9,3 1019,8 90 0,40 153
Moyenne2,3 -0,7 0,2 Calme #163/212 0,9 1014,3 81 0,60 76 #119/212
Bas-0,3 -6,6 -   0,0 1006,1 58 -  
Journalier - Tabular details for Vendredi 19 octobre 2018
Heure Temp. ( °C ) Dew pt. ( °C ) Vent ( km/h ) de Rafale ( km/h ) Pression ( hPa ) Humid.( % ) Rainrate ( cm ) Solaire ( W/m2 )
00:04 0,7 -6,6   Calme   1019,7 58 - -
00:09 0,7 -6,4 0,2 Sud   1019,7 59 - -
00:14 0,7 -6,4   Calme   1019,8 59 - -
00:19 0,7 -6,2   Calme   1019,8 60 - -
00:24 0,7 -6,2   Calme   1019,7 60 - -
00:29 0,7 -6,2   Calme   1019,6 60 - -
00:34 0,6 -6,3   Calme   1019,7 60 - -
00:39 0,6 -6,3   Calme   1019,7 60 - -
00:44 0,5 -6,2   Calme   1019,6 61 - -
00:49 0,5 -5,9   Calme   1019,7 62 - -
00:54 0,4 -6,0   Calme   1019,5 62 - -
00:59 0,4 -6,0   Calme   1019,5 62 - -
01:04 0,3 -5,9   Calme   1019,5 63 - -
01:09 0,3 -5,9   Calme   1019,6 63 - -
01:14 0,3 -5,7   Calme   1019,5 64 - -
01:19 0,2 -5,8   Calme   1019,4 64 - -
01:24 0,2 -5,7   Calme   1019,4 65 - -
01:29 0,1 -5,7   Calme   1019,3 65 - -
01:34 0,1 -5,6   Calme   1019,3 66 - -
01:39 0,1 -5,5   Calme 1,9 1019,2 66 - -
01:44 0,1 -5,5   Calme   1019,3 66 - -
01:49 0,2 -5,4 0,2 Sud   1019,3 66 - -
01:54 0,2 -5,6   Calme   1019,2 65 - -
01:59 0,3 -5,3   Calme   1019,1 66 - -
02:04 0,3 -5,3   Calme   1018,9 66 - -
02:09 0,3 -5,3   Calme   1019,0 66 - -
02:14 0,3 -5,3   Calme   1019,1 66 - -
02:19 0,4 -5,1   Calme   1018,9 67 - -
02:24 0,4 -5,1 0,2 Sud 1,9 1018,9 67 - -
02:29 0,4 -5,0 1,3 Sud 1,9 1018,9 67 - -
02:34 0,4 -4,8   Calme   1018,8 68 - -
02:39 0,4 -4,4   Calme   1018,8 70 - -
02:44 0,4 -4,3   Calme   1018,8 71 - -
02:49 0,3 -4,1   Calme   1018,8 72 - -
02:54 0,3 -3,8   Calme 1,9 1018,7 74 - -
02:59 0,3 -3,6   Calme   1018,6 75 - -
03:04 0,3 -3,4 0,3 Sud 2,1 1018,6 76 - -
03:09 0,2 -3,4   Calme   1018,5 77 - -
03:14 0,1 -3,3   Calme   1018,4 78 - -
03:19 0,0 -3,2   Calme   1018,3 79 - -
03:24 0,0 -3,1   Calme   1018,4 80 - -
03:29 -0,1 -2,9   Calme   1018,4 81 - -
03:34 -0,1 -2,8   Calme   1018,4 82 - -
03:39 -0,1 -2,7   Calme   1018,3 83 - -
03:44 -0,2 -2,8   Calme   1018,3 83 - -
03:49 -0,2 -2,6   Calme   1018,1 84 - -
03:54 -0,2 -2,6   Calme   1018,1 84 - -
03:59 -0,3 -2,5   Calme   1018,2 85 - -
04:04 -0,3 -2,5   Calme   1018,1 85 - -
04:09 -0,3 -2,3   Calme   1018,1 86 - -
04:14 -0,3 -2,3   Calme   1018,1 86 - -
04:19 -0,3 -2,3   Calme   1018,2 86 - -
04:24 -0,2 -2,1   Calme   1018,1 87 - -
04:29 -0,2 -2,1   Calme   1018,1 87 - -
04:34 -0,2 -2,1   Calme   1018,0 87 - -
04:39 -0,2 -2,1   Calme   1018,0 87 - -
04:44 -0,2 -1,9   Calme   1018,0 88 - -
04:49 -0,3 -2,0   Calme   1018,0 88 - -
04:54 -0,3 -2,1   Calme   1017,9 88 - -
04:59 -0,3 -2,0   Calme   1017,9 88 - -
05:04 -0,3 -1,9   Calme   1017,8 89 - -
05:09 -0,2 -1,8   Calme   1017,9 89 - -
05:14 -0,2 -1,8   Calme   1017,9 89 - -
05:19 -0,2 -1,8   Calme   1017,8 89 - -
05:24 -0,2 -1,8   Calme   1017,7 89 - -
05:29 -0,2 -1,6   Calme   1017,5 90 - -
05:34 -0,2 -1,8   Calme   1017,5 89 - -
05:39 -0,1 -1,6   Calme   1017,4 90 - -
05:44 -0,1 -1,5   Calme   1017,3 90 - -
05:49 -0,1 -1,5   Calme   1017,3 90 - -
05:54 -0,1 -1,5   Calme   1017,4 90 - -
05:59 -0,2 -1,6   Calme   1017,3 90 - -
06:04 -0,2 -1,6   Calme   1017,3 90 - -
06:09 -0,1 -1,6   Calme   1017,4 90 - -
06:14 -0,1 -1,6   Calme   1017,4 90 - -
06:19 -0,1 -1,6   Calme   1017,3 90 - -
06:24 -0,2 -1,6   Calme   1017,2 90 - -
06:29 -0,2 -1,6   Calme   1017,1 90 - -
06:34 -0,1 -1,6   Calme   1016,9 90 - -
06:39 0,0 -1,4   Calme   1016,6 90 - -
06:44 0,0 -1,4   Calme   1016,5 90 - -
06:49 0,1 -1,4   Calme   1016,7 90 - -
06:54 0,1 -1,4   Calme   1016,8 90 - -
06:59 0,1 -1,3   Calme   1016,7 90 - -
07:04 0,1 -1,3   Calme   1016,6 90 - -
07:09 0,1 -1,3   Calme   1016,9 90 - -
07:14 0,1 -1,3   Calme   1016,9 90 - -
07:19 0,2 -1,3   Calme   1016,7 90 - -
07:24 0,2 -1,3   Calme   1016,6 90 - -
07:29 0,2 -1,3   Calme   1016,4 90 - -
07:34 0,2 -1,2   Calme   1016,5 90 - -
07:39 0,2 -1,2   Calme   1016,4 90 - -
07:44 0,2 -1,2   Calme   1016,4 90 - -
07:49 0,3 -1,2   Calme   1016,3 90 - 5
07:54 0,3 -1,2   Calme   1016,2 90 - 7
07:59 0,3 -1,1   Calme   1016,2 90 - 7
08:04 0,4 -1,1   Calme   1016,2 90 - 9
08:09 0,4 -1,0 0,2 Sud 1,9 1016,1 90 - 9
08:14 0,4 -1,0   Calme   1016,1 90 - 9
08:19 0,4 -1,0   Calme   1016,0 90 - 11
08:24 0,5 -0,9   Calme   1016,0 90 - 14
08:29 0,6 -1,1   Calme   1016,0 89 - 16
08:34 0,6 -1,1   Calme 3,7 1015,9 89 - 14
08:39 0,6 -1,0   Calme   1015,9 89 - 16
08:44 0,6 -1,0 0,5 SSE   1015,8 89 - 21
08:49 0,7 -0,9 0,2 SSE   1015,8 89 - 19
08:54 0,7 -0,9 0,3 SSE 1,9 1015,7 89 - 23
08:59 0,7 -0,9   Calme 1,9 1015,7 89 - 23
09:04 0,8 -1,0 0,8 Est 1,9 1015,7 88 - 25
09:09 0,8 -0,9   Calme 3,7 1015,6 88 - 26
09:14 0,9 -0,9   Calme 1,9 1015,6 88 - 28
09:19 0,9 -0,8   Calme 1,9 1015,3 88 - 39
09:24 1,0 -0,8   Calme   1015,3 88 - 42
09:29 1,1 -0,7   Calme   1015,1 88 - 51
09:34 1,1 -0,7 0,3 ENE 1,9 1015,1 88 - 56
09:39 1,2 -0,6   Calme 3,7 1015,0 88 - 79
09:44 1,3 -0,5   Calme   1014,9 88 - 86
09:49 1,4 -0,3   Calme   1014,9 88 - 86
09:54 1,6 -0,2 0,3 ENE 1,9 1014,7 88 - 90
09:59 1,7 -0,1   Calme   1014,5 88 - 105
10:04 1,8 0,1   Calme   1014,5 88 - 98
10:09 1,9 0,2   Calme   1014,4 88 - 107
10:14 2,0 0,1 0,3 ENE 1,9 1014,3 87 - 104
10:19 2,1 -0,1   Calme 1,9 1014,2 86 - 95
10:24 2,1 0,0   Calme 1,9 1014,1 86 0,20 104
10:29 2,2 -0,1   Calme 1,9 1013,9 85 0,20 105
10:34 2,2 0,1   Calme   1013,9 86 0,20 107
10:39 2,3 0,2   Calme 2,1 1013,8 86 0,20 102
10:44 2,4 0,3   Calme 1,9 1013,7 86 0,40 97
10:49 2,4 0,3   Calme 1,9 1013,7 86 0,40 97
10:54 2,6 0,3 0,8 ENE 3,7 1013,4 85 0,40 109
10:59 2,6 0,3 0,3 ENE 1,9 1013,4 85 0,40 113
11:04 2,7 0,4 1,3 ENE 1,9 1013,3 85 0,40 114
11:09 2,7 0,4 1,6 ENE 4,2 1013,2 85 0,40 113
11:14 2,8 0,5 0,2 ENE 1,9 1013,3 85 0,40 113
11:19 2,9 0,6   Calme 1,9 1013,1 85 0,40 116
11:24 3,0 0,6   Calme 1,9 1012,9 84 0,20 111
11:29 3,1 0,8   Calme   1012,9 85 0,20 116
11:34 3,2 0,9   Calme   1012,8 85 0,20 123
11:39 3,4 0,9   Calme   1012,7 84 0,20 113
11:44 3,4 1,0   Calme   1012,7 84 - 114
11:49 3,6 1,1   Calme   1012,6 84 - 125
11:54 3,6 1,0   Calme   1012,5 83 - 116
11:59 3,7 1,1   Calme   1012,6 83 - 93
12:04 3,8 1,3   Calme   1012,4 84 - 107
12:09 3,8 1,0   Calme   1012,2 82 - 130
12:14 3,9 1,4   Calme 1,9 1012,1 84 - 144
12:19 4,1 1,6   Calme   1011,9 84 - 153
12:24 4,2 1,7   Calme 3,7 1011,8 84 - 149
12:29 4,3 1,8 1,0 NE 1,9 1011,6 84 - 149
12:34 4,3 1,5 0,6 NE 2,1 1011,5 82 - 141
12:39 4,4 1,8 0,6 NE 9,3 1011,4 83 - 137
12:44 4,5 1,9 1,1 NE 3,7 1011,4 83 - 142
12:49 4,5 1,5 0,3 NE 2,1 1011,2 81 - 127
12:54 4,6 1,7 1,1 NE 3,7 1011,1 82 - 121
12:59 4,6 1,8   Calme 1,9 1011,1 82 - 98
13:04 4,7 1,7 0,8 NE 1,9 1011,0 81 - 105
13:09 4,8 1,9 1,4 NE 2,1 1010,9 82 - 97
13:14 4,8 1,8   Calme   1010,8 81 - 88
13:19 4,8 1,8 0,6 NE 2,1 1010,6 81 - 91
13:24 4,9 1,7   Calme   1010,5 80 - 83
13:29 5,0 2,0   Calme   1010,3 81 - 79
13:34 5,1 2,1 0,2 NE   1010,1 81 - 88
13:39 5,1 2,1   Calme 1,9 1010,0 81 - 88
13:44 5,2 2,2 0,8 NE 2,1 1009,8 81 - 93
13:49 5,3 2,3 0,5 NE 1,9 1009,7 81 - 93
13:54 5,3 2,2 2,3 NE 5,6 1009,5 80 - 91
13:59 5,4 2,2   Calme   1009,5 80 - 72
14:04 5,4 2,3   Calme 1,9 1009,4 80 - 70
14:09 5,4 2,3 0,8 NE 1,9 1009,4 80 - 77
14:14 5,5 2,2   Calme   1009,2 79 - 79
14:19 5,6 2,4   Calme   1009,2 80 - 79
14:24 5,7 2,3   Calme 1,9 1009,0 79 - 88
14:29 5,7 2,4   Calme   1008,9 79 - 90
14:34 5,8 2,4 1,3 NE 2,1 1008,7 79 - 95
14:39 5,9 2,5   Calme   1008,6 79 - 102
14:44 5,9 2,6   Calme   1008,5 79 - 100
14:49 6,1 2,7 3,7 NE 4,2 1008,4 79 - 91
14:54 6,1 2,6 1,1 NE 3,7 1008,3 78 - 102
14:59 6,2 2,6 1,9 NE 3,7 1008,2 78 - 98
15:04 6,2 2,5 3,4 NE 9,3 1008,1 77 - 91
15:09 6,2 2,7 1,0 NNE 3,7 1008,0 78 - 86
15:14 6,3 2,7   Calme 1,9 1008,0 78 - 81
15:19 6,3 2,8   Calme 1,9 1007,8 78 - 107
15:24 6,4 2,8   Calme 3,7 1007,8 78 - 102
15:29 6,4 2,9 1,6 NNE 3,7 1007,8 78 - 98
15:34 6,6 3,0 1,6 NNE 4,2 1007,8 78 - 62
15:39 6,6 3,1   Calme   1007,6 78 - 46
15:44 6,7 2,9 0,5 NNE 1,9 1007,8 77 - 44
15:49 6,7 3,1   Calme   1007,7 78 - 53
15:54 6,8 3,2   Calme   1007,5 78 - 69
15:59 6,8 3,0   Calme   1007,5 77 - 74
16:04 6,8 2,9 0,2 NNE 1,9 1007,3 76 - 77
16:09 6,9 3,1   Calme   1007,2 77 - 76
16:14 7,0 3,2   Calme   1007,2 77 - 72
16:19 7,0 3,1 1,4 NNE 3,7 1006,9 76 - 77
16:24 7,1 3,1 0,2 NNE   1006,7 76 - 76
16:29 7,2 3,1 3,1 NNE 9,3 1006,6 75 - 69
16:34 7,2 3,1 0,3 NNE 1,9 1006,5 75 - 62
16:39 7,2 3,1 0,6 NNE 3,7 1006,4 75 - 54
16:44 7,3 3,1   Calme   1006,3 75 - 58
16:49 7,3 3,2 0,6 NNE 1,9 1006,3 75 - 47
16:54 7,3 3,0 0,2 NNE   1006,3 74 - 42
16:59 7,3 3,0   Calme   1006,4 74 - 30
17:04 7,3 3,2   Calme   1006,4 75 - 23
17:09 7,3 3,2   Calme   1006,4 75 - 18
17:14 7,3 3,2   Calme   1006,3 75 - 14
17:19 7,3 3,3   Calme   1006,2 76 - 12
17:24 7,1 3,3   Calme   1006,2 77 - 11
17:29 7,1 3,3   Calme   1006,1 77 - 11
17:34 7,1 3,5   Calme   1006,3 78 - 7
17:39 6,9 3,4   Calme   1006,3 78 - 5
Journalier - Résumé pour Vendredi 19 octobre 2018
Heure Temp. ( °C ) Dew pt. ( °C ) Vent ( km/h ) de Rafale ( km/h ) Pression ( hPa ) Humid.( % ) Rainrate ( cm ) Solaire ( W/m2 )
Élevé7,3 3,5 3,7 NE ( 24/44 ) 9,3 1019,8 90 0,40 153
Moyenne2,3 -0,7 0,2 Calme #163/212 0,9 1014,3 81 0,60 76 #119/212
Bas-0,3 -6,6 -   0,0 1006,1 58 -  
Journalier - Tabular details for Vendredi 19 octobre 2018
Heure Temp. ( °C ) Dew pt. ( °C ) Vent ( km/h ) de Rafale ( km/h ) Pression ( hPa ) Humid.( % ) Rainrate ( cm ) Solaire ( W/m2 )
00:04 0,7 -6,6   Calme   1019,7 58 - -
00:09 0,7 -6,4 0,2 Sud   1019,7 59 - -
00:14 0,7 -6,4   Calme   1019,8 59 - -
00:19 0,7 -6,2   Calme   1019,8 60 - -
00:24 0,7 -6,2   Calme   1019,7 60 - -
00:29 0,7 -6,2   Calme   1019,6 60 - -
00:34 0,6 -6,3   Calme   1019,7 60 - -
00:39 0,6 -6,3   Calme   1019,7 60 - -
00:44 0,5 -6,2   Calme   1019,6 61 - -
00:49 0,5 -5,9   Calme   1019,7 62 - -
00:54 0,4 -6,0   Calme   1019,5 62 - -
00:59 0,4 -6,0   Calme   1019,5 62 - -
01:04 0,3 -5,9   Calme   1019,5 63 - -
01:09 0,3 -5,9   Calme   1019,6 63 - -
01:14 0,3 -5,7   Calme   1019,5 64 - -
01:19 0,2 -5,8   Calme   1019,4 64 - -
01:24 0,2 -5,7   Calme   1019,4 65 - -
01:29 0,1 -5,7   Calme   1019,3 65 - -
01:34 0,1 -5,6   Calme   1019,3 66 - -
01:39 0,1 -5,5   Calme 1,9 1019,2 66 - -
01:44 0,1 -5,5   Calme   1019,3 66 - -
01:49 0,2 -5,4 0,2 Sud   1019,3 66 - -
01:54 0,2 -5,6   Calme   1019,2 65 - -
01:59 0,3 -5,3   Calme   1019,1 66 - -
02:04 0,3 -5,3   Calme   1018,9 66 - -
02:09 0,3 -5,3   Calme   1019,0 66 - -
02:14 0,3 -5,3   Calme   1019,1 66 - -
02:19 0,4 -5,1   Calme   1018,9 67 - -
02:24 0,4 -5,1 0,2 Sud 1,9 1018,9 67 - -
02:29 0,4 -5,0 1,3 Sud 1,9 1018,9 67 - -
02:34 0,4 -4,8   Calme   1018,8 68 - -
02:39 0,4 -4,4   Calme   1018,8 70 - -
02:44 0,4 -4,3   Calme   1018,8 71 - -
02:49 0,3 -4,1   Calme   1018,8 72 - -
02:54 0,3 -3,8   Calme 1,9 1018,7 74 - -
02:59 0,3 -3,6   Calme   1018,6 75 - -
03:04 0,3 -3,4 0,3 Sud 2,1 1018,6 76 - -
03:09 0,2 -3,4   Calme   1018,5 77 - -
03:14 0,1 -3,3   Calme   1018,4 78 - -
03:19 0,0 -3,2   Calme   1018,3 79 - -
03:24 0,0 -3,1   Calme   1018,4 80 - -
03:29 -0,1 -2,9   Calme   1018,4 81 - -
03:34 -0,1 -2,8   Calme   1018,4 82 - -
03:39 -0,1 -2,7   Calme   1018,3 83 - -
03:44 -0,2 -2,8   Calme   1018,3 83 - -
03:49 -0,2 -2,6   Calme   1018,1 84 - -
03:54 -0,2 -2,6   Calme   1018,1 84 - -
03:59 -0,3 -2,5   Calme   1018,2 85 - -
04:04 -0,3 -2,5   Calme   1018,1 85 - -
04:09 -0,3 -2,3   Calme   1018,1 86 - -
04:14 -0,3 -2,3   Calme   1018,1 86 - -
04:19 -0,3 -2,3   Calme   1018,2 86 - -
04:24 -0,2 -2,1   Calme   1018,1 87 - -
04:29 -0,2 -2,1   Calme   1018,1 87 - -
04:34 -0,2 -2,1   Calme   1018,0 87 - -
04:39 -0,2 -2,1   Calme   1018,0 87 - -
04:44 -0,2 -1,9   Calme   1018,0 88 - -
04:49 -0,3 -2,0   Calme   1018,0 88 - -
04:54 -0,3 -2,1   Calme   1017,9 88 - -
04:59 -0,3 -2,0   Calme   1017,9 88 - -
05:04 -0,3 -1,9   Calme   1017,8 89 - -
05:09 -0,2 -1,8   Calme   1017,9 89 - -
05:14 -0,2 -1,8   Calme   1017,9 89 - -
05:19 -0,2 -1,8   Calme   1017,8 89 - -
05:24 -0,2 -1,8   Calme   1017,7 89 - -
05:29 -0,2 -1,6   Calme   1017,5 90 - -
05:34 -0,2 -1,8   Calme   1017,5 89 - -
05:39 -0,1 -1,6   Calme   1017,4 90 - -
05:44 -0,1 -1,5   Calme   1017,3 90 - -
05:49 -0,1 -1,5   Calme   1017,3 90 - -
05:54 -0,1 -1,5   Calme   1017,4 90 - -
05:59 -0,2 -1,6   Calme   1017,3 90 - -
06:04 -0,2 -1,6   Calme   1017,3 90 - -
06:09 -0,1 -1,6   Calme   1017,4 90 - -
06:14 -0,1 -1,6   Calme   1017,4 90 - -
06:19 -0,1 -1,6   Calme   1017,3 90 - -
06:24 -0,2 -1,6   Calme   1017,2 90 - -
06:29 -0,2 -1,6   Calme   1017,1 90 - -
06:34 -0,1 -1,6   Calme   1016,9 90 - -
06:39 0,0 -1,4   Calme   1016,6 90 - -
06:44 0,0 -1,4   Calme   1016,5 90 - -
06:49 0,1 -1,4   Calme   1016,7 90 - -
06:54 0,1 -1,4   Calme   1016,8 90 - -
06:59 0,1 -1,3   Calme   1016,7 90 - -
07:04 0,1 -1,3   Calme   1016,6 90 - -
07:09 0,1 -1,3   Calme   1016,9 90 - -
07:14 0,1 -1,3   Calme   1016,9 90 - -
07:19 0,2 -1,3   Calme   1016,7 90 - -
07:24 0,2 -1,3   Calme   1016,6 90 - -
07:29 0,2 -1,3   Calme   1016,4 90 - -
07:34 0,2 -1,2   Calme   1016,5 90 - -
07:39 0,2 -1,2   Calme   1016,4 90 - -
07:44 0,2 -1,2   Calme   1016,4 90 - -
07:49 0,3 -1,2   Calme   1016,3 90 - 5
07:54 0,3 -1,2   Calme   1016,2 90 - 7
07:59 0,3 -1,1   Calme   1016,2 90 - 7
08:04 0,4 -1,1   Calme   1016,2 90 - 9
08:09 0,4 -1,0 0,2 Sud 1,9 1016,1 90 - 9
08:14 0,4 -1,0   Calme   1016,1 90 - 9
08:19 0,4 -1,0   Calme   1016,0 90 - 11
08:24 0,5 -0,9   Calme   1016,0 90 - 14
08:29 0,6 -1,1   Calme   1016,0 89 - 16
08:34 0,6 -1,1   Calme 3,7 1015,9 89 - 14
08:39 0,6 -1,0   Calme   1015,9 89 - 16
08:44 0,6 -1,0 0,5 SSE   1015,8 89 - 21
08:49 0,7 -0,9 0,2 SSE   1015,8 89 - 19
08:54 0,7 -0,9 0,3 SSE 1,9 1015,7 89 - 23
08:59 0,7 -0,9   Calme 1,9 1015,7 89 - 23
09:04 0,8 -1,0 0,8 Est 1,9 1015,7 88 - 25
09:09 0,8 -0,9   Calme 3,7 1015,6 88 - 26
09:14 0,9 -0,9   Calme 1,9 1015,6 88 - 28
09:19 0,9 -0,8   Calme 1,9 1015,3 88 - 39
09:24 1,0 -0,8   Calme   1015,3 88 - 42
09:29 1,1 -0,7   Calme   1015,1 88 - 51
09:34 1,1 -0,7 0,3 ENE 1,9 1015,1 88 - 56
09:39 1,2 -0,6   Calme 3,7 1015,0 88 - 79
09:44 1,3 -0,5   Calme   1014,9 88 - 86
09:49 1,4 -0,3   Calme   1014,9 88 - 86
09:54 1,6 -0,2 0,3 ENE 1,9 1014,7 88 - 90
09:59 1,7 -0,1   Calme   1014,5 88 - 105
10:04 1,8 0,1   Calme   1014,5 88 - 98
10:09 1,9 0,2   Calme   1014,4 88 - 107
10:14 2,0 0,1 0,3 ENE 1,9 1014,3 87 - 104
10:19 2,1 -0,1   Calme 1,9 1014,2 86 - 95
10:24 2,1 0,0   Calme 1,9 1014,1 86 0,20 104
10:29 2,2 -0,1   Calme 1,9 1013,9 85 0,20 105
10:34 2,2 0,1   Calme   1013,9 86 0,20 107
10:39 2,3 0,2   Calme 2,1 1013,8 86 0,20 102
10:44 2,4 0,3   Calme 1,9 1013,7 86 0,40 97
10:49 2,4 0,3   Calme 1,9 1013,7 86 0,40 97
10:54 2,6 0,3 0,8 ENE 3,7 1013,4 85 0,40 109
10:59 2,6 0,3 0,3 ENE 1,9 1013,4 85 0,40 113
11:04 2,7 0,4 1,3 ENE 1,9 1013,3 85 0,40 114
11:09 2,7 0,4 1,6 ENE 4,2 1013,2 85 0,40 113
11:14 2,8 0,5 0,2 ENE 1,9 1013,3 85 0,40 113
11:19 2,9 0,6   Calme 1,9 1013,1 85 0,40 116
11:24 3,0 0,6   Calme 1,9 1012,9 84 0,20 111
11:29 3,1 0,8   Calme   1012,9 85 0,20 116
11:34 3,2 0,9   Calme   1012,8 85 0,20 123
11:39 3,4 0,9   Calme   1012,7 84 0,20 113
11:44 3,4 1,0   Calme   1012,7 84 - 114
11:49 3,6 1,1   Calme   1012,6 84 - 125
11:54 3,6 1,0   Calme   1012,5 83 - 116
11:59 3,7 1,1   Calme   1012,6 83 - 93
12:04 3,8 1,3   Calme   1012,4 84 - 107
12:09 3,8 1,0   Calme   1012,2 82 - 130
12:14 3,9 1,4   Calme 1,9 1012,1 84 - 144
12:19 4,1 1,6   Calme   1011,9 84 - 153
12:24 4,2 1,7   Calme 3,7 1011,8 84 - 149
12:29 4,3 1,8 1,0 NE 1,9 1011,6 84 - 149
12:34 4,3 1,5 0,6 NE 2,1 1011,5 82 - 141
12:39 4,4 1,8 0,6 NE 9,3 1011,4 83 - 137
12:44 4,5 1,9 1,1 NE 3,7 1011,4 83 - 142
12:49 4,5 1,5 0,3 NE 2,1 1011,2 81 - 127
12:54 4,6 1,7 1,1 NE 3,7 1011,1 82 - 121
12:59 4,6 1,8   Calme 1,9 1011,1 82 - 98
13:04 4,7 1,7 0,8 NE 1,9 1011,0 81 - 105
13:09 4,8 1,9 1,4 NE 2,1 1010,9 82 - 97
13:14 4,8 1,8   Calme   1010,8 81 - 88
13:19 4,8 1,8 0,6 NE 2,1 1010,6 81 - 91
13:24 4,9 1,7   Calme   1010,5 80 - 83
13:29 5,0 2,0   Calme   1010,3 81 - 79
13:34 5,1 2,1 0,2 NE   1010,1 81 - 88
13:39 5,1 2,1   Calme 1,9 1010,0 81 - 88
13:44 5,2 2,2 0,8 NE 2,1 1009,8 81 - 93
13:49 5,3 2,3 0,5 NE 1,9 1009,7 81 - 93
13:54 5,3 2,2 2,3 NE 5,6 1009,5 80 - 91
13:59 5,4 2,2   Calme   1009,5 80 - 72
14:04 5,4 2,3   Calme 1,9 1009,4 80 - 70
14:09 5,4 2,3 0,8 NE 1,9 1009,4 80 - 77
14:14 5,5 2,2   Calme   1009,2 79 - 79
14:19 5,6 2,4   Calme   1009,2 80 - 79
14:24 5,7 2,3   Calme 1,9 1009,0 79 - 88
14:29 5,7 2,4   Calme   1008,9 79 - 90
14:34 5,8 2,4 1,3 NE 2,1 1008,7 79 - 95
14:39 5,9 2,5   Calme   1008,6 79 - 102
14:44 5,9 2,6   Calme   1008,5 79 - 100
14:49 6,1 2,7 3,7 NE 4,2 1008,4 79 - 91
14:54 6,1 2,6 1,1 NE 3,7 1008,3 78 - 102
14:59 6,2 2,6 1,9 NE 3,7 1008,2 78 - 98
15:04 6,2 2,5 3,4 NE 9,3 1008,1 77 - 91
15:09 6,2 2,7 1,0 NNE 3,7 1008,0 78 - 86
15:14 6,3 2,7   Calme 1,9 1008,0 78 - 81
15:19 6,3 2,8   Calme 1,9 1007,8 78 - 107
15:24 6,4 2,8   Calme 3,7 1007,8 78 - 102
15:29 6,4 2,9 1,6 NNE 3,7 1007,8 78 - 98
15:34 6,6 3,0 1,6 NNE 4,2 1007,8 78 - 62
15:39 6,6 3,1   Calme   1007,6 78 - 46
15:44 6,7 2,9 0,5 NNE 1,9 1007,8 77 - 44
15:49 6,7 3,1   Calme   1007,7 78 - 53
15:54 6,8 3,2   Calme   1007,5 78 - 69
15:59 6,8 3,0   Calme   1007,5 77 - 74
16:04 6,8 2,9 0,2 NNE 1,9 1007,3 76 - 77
16:09 6,9 3,1   Calme   1007,2 77 - 76
16:14 7,0 3,2   Calme   1007,2 77 - 72
16:19 7,0 3,1 1,4 NNE 3,7 1006,9 76 - 77
16:24 7,1 3,1 0,2 NNE   1006,7 76 - 76
16:29 7,2 3,1 3,1 NNE 9,3 1006,6 75 - 69
16:34 7,2 3,1 0,3 NNE 1,9 1006,5 75 - 62
16:39 7,2 3,1 0,6 NNE 3,7 1006,4 75 - 54
16:44 7,3 3,1   Calme   1006,3 75 - 58
16:49 7,3 3,2 0,6 NNE 1,9 1006,3 75 - 47
16:54 7,3 3,0 0,2 NNE   1006,3 74 - 42
16:59 7,3 3,0   Calme   1006,4 74 - 30
17:04 7,3 3,2   Calme   1006,4 75 - 23
17:09 7,3 3,2   Calme   1006,4 75 - 18
17:14 7,3 3,2   Calme   1006,3 75 - 14
17:19 7,3 3,3   Calme   1006,2 76 - 12
17:24 7,1 3,3   Calme   1006,2 77 - 11
17:29 7,1 3,3   Calme   1006,1 77 - 11
17:34 7,1 3,5   Calme   1006,3 78 - 7
17:39 6,9 3,4   Calme   1006,3 78 - 5

Download your copy of this data-set  here

Our weather-data as stored at Weather Underground. Script original développé par Jim McMurry. Adapté pour le modèle par Leuven-Template.eu

Les données sont envoyées via ces sites météo:

WeatherCloud

Weather Underground

Quebec Weather Network

AWEKAS

HAMweather, WeatherForYou, PWS Weather